Time,TemperatureF,DewpointF,PressureIn,WindDirection,WindDirectionDegrees,WindSpeedMPH,WindSpeedGustMPH,Humidity,HourlyPrecipIn,Conditions,Clouds,dailyrainin,SoftwareType,DateUTC
2013-05-03 00:01:00,36.0,30.0,-100.00,WNW,300,7.0,11.0,76,0.00,,,0.00,,2013-05-03 00:01:00,
2013-05-03 00:11:00,36.0,30.0,-100.00,NW,310,9.0,11.0,76,0.00,,,0.00,,2013-05-03 00:11:00,
2013-05-03 00:21:00,36.0,30.0,-100.00,NW,305,5.0,9.0,78,0.00,,,0.00,,2013-05-03 00:21:00,
2013-05-03 00:31:00,36.0,30.0,-100.00,NW,315,7.0,9.0,79,0.00,,,0.00,,2013-05-03 00:31:00,
2013-05-03 00:41:00,36.0,30.0,-100.00,NW,315,7.0,9.0,80,0.00,,,0.00,,2013-05-03 00:41:00,
2013-05-03 00:52:00,35.0,30.0,-100.00,NW,320,9.0,11.0,82,0.00,,,0.00,,2013-05-03 00:52:00,
2013-05-03 01:01:00,35.0,30.0,-100.00,NW,325,7.0,9.0,84,0.00,,,0.00,,2013-05-03 01:01:00,
2013-05-03 01:11:00,35.0,32.0,-100.00,NNW,335,6.0,7.0,88,0.00,,,0.00,,2013-05-03 01:11:00,
2013-05-03 01:21:00,34.0,32.0,-100.00,NNW,330,4.0,8.0,90,0.00,,,0.00,,2013-05-03 01:21:00,
2013-05-03 01:31:00,34.0,32.0,-100.00,NNW,330,4.0,6.0,92,0.00,,,0.00,,2013-05-03 01:31:00,
2013-05-03 01:42:00,35.0,32.0,-100.00,WNW,300,6.0,7.0,91,0.00,,,0.00,,2013-05-03 01:42:00,
2013-05-03 01:52:00,34.0,32.0,-100.00,NW,305,5.0,7.0,91,0.00,,,0.00,,2013-05-03 01:52:00,
2013-05-03 02:01:00,34.0,32.0,-100.00,NW,320,6.0,9.0,92,0.00,,,0.00,,2013-05-03 02:01:00,
2013-05-03 02:11:00,34.0,32.0,-100.00,NW,310,6.0,9.0,93,0.00,,,0.00,,2013-05-03 02:11:00,
2013-05-03 02:21:00,34.0,34.0,-100.00,NW,305,4.0,9.0,94,0.00,,,0.00,,2013-05-03 02:21:00,
2013-05-03 02:32:00,34.0,34.0,-100.00,WNW,295,6.0,7.0,94,0.00,,,0.00,,2013-05-03 02:32:00,
2013-05-03 02:42:00,34.0,32.0,-100.00,WNW,300,6.0,10.0,92,0.00,,,0.00,,2013-05-03 02:42:00,
2013-05-03 02:52:00,34.0,32.0,-100.00,WNW,300,6.0,9.0,92,0.00,,,0.00,,2013-05-03 02:52:00,
2013-05-03 03:01:00,34.0,32.0,-100.00,WNW,300,6.0,9.0,92,0.00,,,0.00,,2013-05-03 03:01:00,
2013-05-03 03:11:00,34.0,32.0,-100.00,NW,315,6.0,7.0,92,0.00,,,0.00,,2013-05-03 03:11:00,
2013-05-03 03:21:00,34.0,32.0,-100.00,NW,315,6.0,9.0,92,0.00,,,0.00,,2013-05-03 03:21:00,
2013-05-03 03:33:00,34.0,32.0,-100.00,NW,315,7.0,9.0,92,0.00,,,0.00,,2013-05-03 03:33:00,
2013-05-03 03:42:00,34.0,32.0,-100.00,WNW,300,8.0,11.0,91,0.00,,,0.00,,2013-05-03 03:42:00,
2013-05-03 03:52:00,34.0,32.0,-100.00,NW,305,6.0,9.0,93,0.00,,,0.00,,2013-05-03 03:52:00,
2013-05-03 04:03:00,34.0,32.0,-100.00,WNW,290,6.0,9.0,92,0.00,,,0.00,,2013-05-03 04:03:00,
2013-05-03 04:12:00,34.0,32.0,-100.00,WNW,300,8.0,11.0,91,0.00,,,0.00,,2013-05-03 04:12:00,
2013-05-03 04:22:00,34.0,32.0,-100.00,NW,310,7.0,13.0,90,0.00,,,0.00,,2013-05-03 04:22:00,
2013-05-03 04:32:00,34.0,32.0,-100.00,WNW,300,7.0,13.0,90,0.00,,,0.00,,2013-05-03 04:32:00,
2013-05-03 04:42:00,34.0,32.0,-100.00,NW,305,7.0,9.0,91,0.00,,,0.00,,2013-05-03 04:42:00,
2013-05-03 04:52:00,34.0,32.0,-100.00,NW,305,7.0,12.0,90,0.00,,,0.00,,2013-05-03 04:52:00,
2013-05-03 05:02:00,34.0,32.0,-100.00,WNW,300,8.0,12.0,89,0.00,,,0.00,,2013-05-03 05:02:00,
2013-05-03 05:12:00,34.0,32.0,-100.00,NW,320,5.0,9.0,90,0.00,,,0.00,,2013-05-03 05:12:00,
2013-05-03 05:21:00,34.0,32.0,-100.00,NW,315,6.0,12.0,89,0.00,,,0.00,,2013-05-03 05:21:00,
2013-05-03 05:32:00,34.0,30.0,-100.00,NW,305,7.0,10.0,89,0.00,,,0.00,,2013-05-03 05:32:00,
2013-05-03 05:42:00,34.0,32.0,-100.00,NW,310,8.0,11.0,90,0.00,,,0.00,,2013-05-03 05:42:00,
2013-05-03 05:52:00,34.0,32.0,-100.00,NW,315,9.0,12.0,90,0.00,,,0.00,,2013-05-03 05:52:00,
2013-05-03 06:02:00,34.0,32.0,-100.00,NW,315,10.0,13.0,91,0.00,,,0.00,,2013-05-03 06:02:00,
2013-05-03 06:11:00,34.0,30.0,-100.00,NW,310,12.0,17.0,89,0.00,,,0.00,,2013-05-03 06:11:00,
2013-05-03 06:21:00,34.0,32.0,-100.00,NW,320,10.0,15.0,92,0.00,,,0.00,,2013-05-03 06:21:00,
2013-05-03 06:32:00,33.0,32.0,-100.00,NW,310,7.0,14.0,95,0.00,,,0.00,,2013-05-03 06:32:00,
2013-05-03 06:42:00,33.0,32.0,-100.00,NW,320,7.0,11.0,98,0.00,,,0.00,,2013-05-03 06:42:00,
2013-05-03 06:51:00,33.0,32.0,-100.00,NW,310,8.0,13.0,99,0.00,,,0.00,,2013-05-03 06:51:00,
2013-05-03 07:01:00,33.0,32.0,-100.00,NW,310,9.0,12.0,99,0.00,,,0.00,,2013-05-03 07:01:00,
2013-05-03 07:11:00,32.0,32.0,-100.00,NW,310,9.0,16.0,99,0.00,,,0.00,,2013-05-03 07:11:00,
2013-05-03 07:21:00,32.0,32.0,-100.00,NW,310,9.0,13.0,99,0.00,,,0.00,,2013-05-03 07:21:00,
2013-05-03 07:31:00,32.0,32.0,-100.00,NW,315,11.0,14.0,99,0.00,,,0.00,,2013-05-03 07:31:00,
2013-05-03 08:32:00,31.0,30.0,-100.00,NW,315,13.0,19.0,99,0.00,,,0.00,,2013-05-03 08:32:00,
2013-05-03 08:42:00,31.0,30.0,-100.00,NW,320,18.0,22.0,99,0.00,,,0.00,,2013-05-03 08:42:00,
2013-05-03 08:52:00,31.0,30.0,-100.00,NW,315,14.0,24.0,99,0.00,,,0.00,,2013-05-03 08:52:00,
2013-05-03 09:01:00,31.0,30.0,-100.00,NW,305,14.0,23.0,99,0.00,,,0.00,,2013-05-03 09:01:00,
2013-05-03 09:11:00,31.0,30.0,-100.00,WNW,285,12.0,19.0,99,0.00,,,0.00,,2013-05-03 09:11:00,
2013-05-03 09:21:00,31.0,30.0,-100.00,WNW,295,13.0,19.0,99,0.00,,,0.00,,2013-05-03 09:21:00,
2013-05-03 09:32:00,31.0,30.0,-100.00,WNW,300,11.0,21.0,99,0.00,,,0.00,,2013-05-03 09:32:00,
2013-05-03 09:42:00,31.0,30.0,-100.00,WNW,300,12.0,21.0,99,0.00,,,0.00,,2013-05-03 09:42:00,
2013-05-03 10:22:00,32.0,32.0,-100.00,WNW,295,16.0,22.0,99,0.00,,,0.00,,2013-05-03 10:22:00,
2013-05-03 11:02:00,31.0,30.0,-100.00,WNW,295,14.0,21.0,99,0.00,,,0.00,,2013-05-03 11:02:00,
2013-05-03 11:11:00,31.0,30.0,-100.00,WNW,300,17.0,24.0,99,0.00,,,0.00,,2013-05-03 11:11:00,
2013-05-03 11:22:00,31.0,30.0,-100.00,WNW,290,17.0,25.0,99,0.00,,,0.00,,2013-05-03 11:22:00,
2013-05-03 11:32:00,31.0,30.0,-100.00,WNW,290,16.0,25.0,99,0.00,,,0.00,,2013-05-03 11:32:00,
2013-05-03 11:42:00,31.0,30.0,-100.00,WNW,295,16.0,24.0,99,0.00,,,0.00,,2013-05-03 11:42:00,
2013-05-03 11:51:00,31.0,30.0,-100.00,WNW,285,14.0,22.0,99,0.00,,,0.00,,2013-05-03 11:51:00,
2013-05-03 12:01:00,31.0,30.0,-100.00,NW,305,17.0,24.0,99,0.00,,,0.00,,2013-05-03 12:01:00,
2013-05-03 12:11:00,31.0,30.0,-100.00,WNW,295,16.0,24.0,99,0.00,,,0.00,,2013-05-03 12:11:00,
2013-05-03 12:21:00,31.0,30.0,-100.00,WNW,285,17.0,21.0,99,0.00,,,0.00,,2013-05-03 12:21:00,
2013-05-03 12:32:00,31.0,30.0,-100.00,WNW,285,17.0,23.0,99,0.00,,,0.00,,2013-05-03 12:32:00,
2013-05-03 12:42:00,31.0,30.0,-100.00,WNW,285,14.0,22.0,99,0.00,,,0.00,,2013-05-03 12:42:00,
2013-05-03 12:51:00,31.0,30.0,-100.00,West,280,16.0,21.0,99,0.00,,,0.00,,2013-05-03 12:51:00,
2013-05-03 13:01:00,31.0,30.0,-100.00,WNW,285,14.0,22.0,99,0.00,,,0.00,,2013-05-03 13:01:00,
2013-05-03 13:11:00,31.0,30.0,-100.00,West,280,13.0,21.0,99,0.00,,,0.00,,2013-05-03 13:11:00,
2013-05-03 13:22:00,31.0,30.0,-100.00,WNW,285,13.0,19.0,99,0.00,,,0.00,,2013-05-03 13:22:00,
2013-05-03 13:32:00,31.0,30.0,-100.00,WNW,285,14.0,18.0,99,0.00,,,0.00,,2013-05-03 13:32:00,
2013-05-03 13:42:00,31.0,30.0,-100.00,WNW,295,11.0,18.0,99,0.00,,,0.00,,2013-05-03 13:42:00,
2013-05-03 13:52:00,31.0,30.0,-100.00,WNW,295,11.0,21.0,99,0.00,,,0.00,,2013-05-03 13:52:00,
2013-05-03 14:02:00,31.0,30.0,-100.00,WNW,300,13.0,18.0,99,0.00,,,0.00,,2013-05-03 14:02:00,
2013-05-03 14:11:00,31.0,30.0,-100.00,NW,305,11.0,17.0,99,0.00,,,0.00,,2013-05-03 14:11:00,
2013-05-03 14:21:00,31.0,30.0,-100.00,WNW,290,11.0,17.0,99,0.00,,,0.00,,2013-05-03 14:21:00,
2013-05-03 14:32:00,31.0,30.0,-100.00,WNW,295,13.0,16.0,99,0.00,,,0.00,,2013-05-03 14:32:00,
2013-05-03 14:42:00,31.0,30.0,-100.00,WNW,285,14.0,22.0,99,0.00,,,0.00,,2013-05-03 14:42:00,
2013-05-03 14:52:00,31.0,30.0,-100.00,WNW,300,12.0,19.0,99,0.00,,,0.00,,2013-05-03 14:52:00,
2013-05-03 15:01:00,31.0,30.0,-100.00,WNW,290,12.0,19.0,99,0.00,,,0.00,,2013-05-03 15:01:00,
2013-05-03 15:11:00,31.0,30.0,-100.00,WNW,295,15.0,21.0,99,0.00,,,0.00,,2013-05-03 15:11:00,
2013-05-03 15:43:00,32.0,32.0,-100.00,WNW,290,16.0,20.0,99,0.00,,,0.01,,2013-05-03 15:43:00,
2013-05-03 15:53:00,32.0,32.0,-100.00,WNW,290,13.0,21.0,99,0.00,,,0.01,,2013-05-03 15:53:00,
2013-05-03 16:03:00,32.0,32.0,-100.00,WNW,285,13.0,22.0,99,0.00,,,0.01,,2013-05-03 16:03:00,
2013-05-03 16:12:00,32.0,32.0,-100.00,WNW,285,14.0,23.0,99,0.00,,,0.01,,2013-05-03 16:12:00,
2013-05-03 16:22:00,32.0,32.0,-100.00,WNW,285,14.0,24.0,99,0.00,,,0.01,,2013-05-03 16:22:00,
2013-05-03 16:32:00,32.0,32.0,-100.00,WNW,295,14.0,21.0,99,0.00,,,0.01,,2013-05-03 16:32:00,
2013-05-03 16:42:00,32.0,32.0,-100.00,West,280,15.0,21.0,99,0.00,,,0.01,,2013-05-03 16:42:00,
2013-05-03 16:52:00,32.0,32.0,-100.00,WNW,290,16.0,23.0,97,0.00,,,0.01,,2013-05-03 16:52:00,
2013-05-03 17:02:00,32.0,32.0,-100.00,WNW,295,16.0,24.0,97,0.00,,,0.01,,2013-05-03 17:02:00,
2013-05-03 17:12:00,33.0,32.0,-100.00,WNW,295,17.0,24.0,95,0.00,,,0.01,,2013-05-03 17:12:00,
2013-05-03 17:23:00,33.0,32.0,-100.00,WNW,295,17.0,26.0,95,0.00,,,0.01,,2013-05-03 17:23:00,
2013-05-03 17:32:00,33.0,32.0,-100.00,WNW,295,16.0,25.0,96,0.00,,,0.01,,2013-05-03 17:32:00,
2013-05-03 17:42:00,33.0,32.0,-100.00,WNW,295,16.0,22.0,96,0.00,,,0.01,,2013-05-03 17:42:00,
2013-05-03 17:51:00,33.0,32.0,-100.00,WNW,295,15.0,23.0,94,0.00,,,0.01,,2013-05-03 17:51:00,
2013-05-03 18:01:00,34.0,32.0,-100.00,WNW,300,13.0,24.0,94,0.00,,,0.01,,2013-05-03 18:01:00,
2013-05-03 18:12:00,33.0,32.0,-100.00,WNW,295,15.0,21.0,94,0.00,,,0.01,,2013-05-03 18:12:00,
2013-05-03 18:21:00,33.0,30.0,-100.00,WNW,290,18.0,24.0,90,0.00,,,0.01,,2013-05-03 18:21:00,
2013-05-03 18:32:00,34.0,30.0,-100.00,WNW,300,15.0,24.0,90,0.00,,,0.01,,2013-05-03 18:32:00,
2013-05-03 18:42:00,34.0,30.0,-100.00,NW,305,14.0,22.0,89,0.00,,,0.01,,2013-05-03 18:42:00,
2013-05-03 18:51:00,33.0,32.0,-100.00,NW,305,16.0,26.0,91,0.00,,,0.01,,2013-05-03 18:51:00,
2013-05-03 19:01:00,34.0,32.0,-100.00,WNW,300,13.0,24.0,91,0.00,,,0.01,,2013-05-03 19:01:00,
2013-05-03 19:11:00,34.0,32.0,-100.00,NW,305,16.0,25.0,91,0.00,,,0.01,,2013-05-03 19:11:00,
2013-05-03 19:21:00,33.0,32.0,-100.00,NW,310,15.0,25.0,93,0.00,,,0.01,,2013-05-03 19:21:00,
2013-05-03 19:32:00,33.0,32.0,-100.00,NW,315,14.0,23.0,94,0.00,,,0.01,,2013-05-03 19:32:00,
2013-05-03 19:41:00,33.0,32.0,-100.00,WNW,300,16.0,22.0,94,0.00,,,0.01,,2013-05-03 19:41:00,
2013-05-03 19:52:00,34.0,32.0,-100.00,WNW,290,12.0,19.0,96,0.00,,,0.01,,2013-05-03 19:52:00,
2013-05-03 20:02:00,33.0,32.0,-100.00,WNW,300,12.0,19.0,96,0.00,,,0.01,,2013-05-03 20:02:00,
2013-05-03 20:11:00,33.0,32.0,-100.00,NW,305,12.0,19.0,96,0.00,,,0.01,,2013-05-03 20:11:00,
2013-05-03 20:31:00,33.0,32.0,-100.00,WNW,290,16.0,20.0,97,0.00,,,0.01,,2013-05-03 20:31:00,
2013-05-03 20:42:00,33.0,32.0,-100.00,WNW,295,12.0,20.0,97,0.00,,,0.01,,2013-05-03 20:42:00,
2013-05-03 20:52:00,33.0,32.0,-100.00,NW,305,13.0,21.0,96,0.00,,,0.01,,2013-05-03 20:52:00,
2013-05-03 21:01:00,33.0,32.0,-100.00,WNW,295,13.0,22.0,95,0.00,,,0.01,,2013-05-03 21:01:00,
2013-05-03 21:11:00,33.0,32.0,-100.00,NW,315,15.0,21.0,94,0.00,,,0.01,,2013-05-03 21:11:00,
2013-05-03 21:21:00,33.0,32.0,-100.00,NW,305,13.0,21.0,94,0.00,,,0.01,,2013-05-03 21:21:00,
2013-05-03 21:33:00,33.0,32.0,-100.00,WNW,295,12.0,18.0,96,0.00,,,0.01,,2013-05-03 21:33:00,
2013-05-03 21:42:00,33.0,32.0,-100.00,WNW,300,12.0,18.0,96,0.00,,,0.01,,2013-05-03 21:42:00,
2013-05-03 21:52:00,33.0,32.0,-100.00,WNW,295,12.0,18.0,96,0.00,,,0.01,,2013-05-03 21:52:00,
2013-05-03 22:02:00,34.0,32.0,-100.00,WNW,285,13.0,21.0,96,0.00,,,0.01,,2013-05-03 22:02:00,
2013-05-03 22:12:00,33.0,32.0,-100.00,NW,305,12.0,19.0,97,0.00,,,0.01,,2013-05-03 22:12:00,
2013-05-03 22:32:00,33.0,32.0,-100.00,NW,310,12.0,21.0,97,0.00,,,0.01,,2013-05-03 22:32:00,
2013-05-03 22:52:00,33.0,32.0,-100.00,WNW,290,11.0,21.0,98,0.00,,,0.01,,2013-05-03 22:52:00,
2013-05-03 23:02:00,33.0,32.0,-100.00,NW,315,16.0,21.0,97,0.00,,,0.01,,2013-05-03 23:02:00,
2013-05-03 23:21:00,33.0,32.0,-100.00,NW,305,12.0,20.0,99,0.00,,,0.01,,2013-05-03 23:21:00,
2013-05-03 23:31:00,33.0,32.0,-100.00,NW,310,14.0,19.0,99,0.00,,,0.01,,2013-05-03 23:31:00,
2013-05-03 23:41:00,33.0,32.0,-100.00,WNW,295,12.0,18.0,99,0.00,,,0.01,,2013-05-03 23:41:00,
2013-05-03 23:51:00,33.0,32.0,-100.00,WNW,295,15.0,22.0,99,0.00,,,0.01,,2013-05-03 23:51:00,